Location: Unspecified
(20.0000°S, 0.0000°E)
Time: 12:00:04
(UTC+00:00)

NUDT-PHONESAT - Pass Details

Date: 27 July 2019
Orbit: 488 x 505 km, 97.4° (Epoch: 18 August)

Event Time Altitude Azimuth Distance (km) Brightness Sun altitude
Rises 18:45:48 0° 184° (S) 2,608 ? -15.3°
Reaches altitude 10° 18:48:05 10° 195° (SSW) 1,714 ? -15.8°
Maximum altitude 18:51:17 28° 256° (WSW) 954 ? -16.5°
Drops below altitude 10° 18:54:26 10° 316° (NW) 1,687 ? -17.2°
Sets 18:56:40 0° 328° (NNW) 2,558 ? -17.7°
